Regional Weather Roundup
Issued by NWS

Home | Current Version | Previous Version | Text Only | Print | Product List | Glossary Off
Versions: 1 2 3 4 5 6 7 8 9 10 11 12 13 14 15 16 17 18 19 20 21 22 23 24 25 26 27 28 29 30 31 32 33 34 35 36 37 38 39 40 41 42 43 44 45 46 47 48 49 50

000
ASUS43 KLOT 290706
RWRIL

ILLINOIS REGIONAL WEATHER ROUNDUP
NATIONAL WEATHER SERVICE CHICAGO/ROMEOVILLE IL
100 AM CST THU JAN 29 2015

NOTE: "FAIR" INDICATES FEW OR NO CLOUDS BELOW 12,000 FEET WITH NO
SIGNIFICANT WEATHER AND/OR OBSTRUCTIONS TO VISIBILITY.

* THESE STATIONS ARE NOT UNDER NWS QUALITY CONTROL. THEY ALSO MAY NOT
  REPORT WEATHER SUCH AS PRECIPITATION OR FOG.

ILZ001-002-007-009-015-016-024-290800-
NORTHWEST ILLINOIS

CITY           SKY/WX    TMP DP  RH WIND       PRES   REMARKS
MOLINE         MOCLDY    38  31  76 CALM      29.66F
STERLING*      PTCLDY    36  30  80 SE5       29.70F WCI  32
SAVANNA*       PTCLDY    33  30  87 CALM      29.71S
$$

ILZ003-004-008-010-011-017-018-290800-
NORTH CENTRAL ILLINOIS

CITY           SKY/WX    TMP DP  RH WIND       PRES   REMARKS
ROCKFORD       CLOUDY    35  28  75 S15       29.74F WCI  25
FREEPORT*      PTCLDY    29  26  91 SE3       29.73F
ROCHELLE*      CLOUDY    33  30  88 S12       29.73F WCI  24
DE KALB*       CLOUDY    32  27  81 SE16      29.74F WCI  21
PERU*          MOCLDY    37  31  81 S13       29.72F WCI  29
$$

ILZ005-006-012>014-019>023-290800-
NORTHEAST ILLINOIS

CITY           SKY/WX    TMP DP  RH WIND       PRES   REMARKS
CHICAGO-OHARE  CLOUDY    34  26  72 S12       29.77F WCI  25
CHICAGO-MIDWAY CLOUDY    37  26  64 S13       29.79F WCI  29
AURORA         MOCLDY    34  26  72 S15       29.75F WCI  24
LANSING*       CLOUDY    34  25  69 S15       29.81F WCI  24
JOLIET*        CLOUDY    35  26  71 S8G16     29.78F WCI  28
WAUKEGAN       CLOUDY    34  24  67 S9        29.77F WCI  27
DUPAGE AIRPORT CLOUDY    35  26  69 S14       29.75F WCI  26
KANKAKEE*      MOCLDY    37  28  70 S14G21    29.79F WCI  28
WHEELING       CLOUDY    34  25  69 S10       29.79F WCI  26
MORRIS*        CLOUDY    35  30  83 SE9       29.75F WCI  27
ROMEOVILLE*    CLOUDY    34  26  71 S15       29.77F WCI  25
NORTHERLY ISL    N/A     35  25  67 S10         N/A  WCI  27
$$

LMZ740>746-290800-
SOUTHERN LAKE MICHIGAN

STATION/POSITION SKY/WX   TEMP    WIND        PRES    VSBY  WAVE
                          AIR SEA DIR/SP/G                  HT/PER
                          (F)     (DEG/KT/KT) (MB)    (MI)  (FT/S)
WAUKEGAN HARBOR            33     170/ 14/ 17   N/A
HARRISON CRIB              34     170/ 20/ 22   N/A
BURNHAM HARBOR             35     160/  8/ 14   N/A
CALUMET HARBOR             35     150/ 12/ 18   N/A
MICHIGAN CITY              35     140/ 18/ 25   N/A
$$

ILZ025>027-034>036-040-047-049-050-058-095>099-290800-
WEST-CENTRAL ILLINOIS

CITY           SKY/WX    TMP DP  RH WIND       PRES   REMARKS
QUINCY         CLOUDY    46  36  68 SW14      29.69F
GALESBURG*     MOCLDY    38  34  84 S9        29.67F WCI  32
MACOMB*        CLOUDY    38  34  84 S16       29.70F WCI  29
JACKSONVILLE*  CLOUDY    44  35  72 S13       29.73F
PITTSFIELD*    CLOUDY    46  37  70 S9        29.72F
$$

ILZ028>032-037-038-041>044-048-051>054-059>061-290800-
CENTRAL ILLINOIS

CITY           SKY/WX    TMP DP  RH WIND       PRES   REMARKS
PONTIAC        MOCLDY    37  31  78 S25       29.74F WCI  26
BLOOMINGTON    MOCLDY    36  31  82 S18       29.74F WCI  26
DECATUR        MOCLDY    40  30  67 S18       29.77F
PEORIA         CLOUDY    39  32  76 S12       29.71F WCI  32
LACON*         CLOUDY    38  31  74 S10       29.70F WCI  32
LINCOLN*       CLOUDY    40  33  73 S18       29.74F
SPRINGFIELD    CLOUDY    42  33  70 S18G26    29.74F
TAYLORVILLE    CLOUDY    41  32  70 S17G28    29.77F
$$

ILZ033-039-045-046-055>057-062-063-290800-
EAST-CENTRAL ILLINOIS

CITY           SKY/WX    TMP DP  RH WIND       PRES   REMARKS
CHAMPAIGN      MOCLDY    37  28  70 S22       29.79F WCI  26
DANVILLE*      CLOUDY    38  27  63 S21G28    29.80F WCI  28
RANTOUL*       MOCLDY    37  30  77 SE13      29.79F WCI  28
MATTOON        MOCLDY    38  28  67 S18G26    29.81F WCI  28
PARIS*         MOCLDY    38  29  70 S18G24    29.86F WCI  28
$$

ILZ079-100>102-290800-
SOUTHWEST ILLINOIS

CITY           SKY/WX    TMP DP  RH WIND       PRES   REMARKS
ALTON          CLOUDY    46  34  63 S12G17    29.78F
BELLEVILLE     CLOUDY    47  37  70 VRB6      29.80F
CAHOKIA*       CLOUDY    53  38  56 S13G23    29.78F
SPARTA*        CLOUDY    47  34  60 S15G24    29.84F
$$

ILZ064>066-069>071-074>076-080>082-084>086-088>090-092>094-290800-
SOUTH-CENTRAL ILLINOIS

CITY           SKY/WX    TMP DP  RH WIND       PRES   REMARKS
CARBONDALE     CLOUDY    50  32  50 S20       29.89F
CAIRO*         CLOUDY    49  35  57 S10       29.95F
EFFINGHAM*     CLOUDY    40  27  59 SE10G16   29.86F
MARION         CLOUDY    48  34  57 S20G31    29.90F
MT. VERNON     CLOUDY    46  34  61 S16       29.87F
CENTRALIA*     CLOUDY    45  32  60 S14       29.84F
SALEM*         CLOUDY    47  33  58 S13G20    29.85F
METROPOLIS*    CLOUDY    50  34  52 S10G18    29.95F
$$

ILZ067-068-072-073-078-083-087-091-290800-
SOUTHEAST ILLINOIS

CITY           SKY/WX    TMP DP  RH WIND       PRES   REMARKS
LAWRENCEVILLE  LGT RAIN  40  29  64 S14       29.93F
FLORA*         CLOUDY    40  33  74 S14       29.87F
FAIRFIELD*     CLOUDY    42  34  71 S9        29.88F
HARRISBURG*    CLOUDY    49  32  51 S14G22    29.93F
ROBINSON*      CLOUDY    40  27  60 S13       29.92F
CARMI*         CLOUDY    44  36  73 SE12      29.93F
$$

ABBREVIATIONS USED IN REMARKS
   TC - TEMPERATURE IN CELSIUS
  WCI - WIND CHILL INDEX
   HX - HEAT INDEX
  VSB - VISIBILITY
$$



USA.gov is the U.S. government's official web portal to all federal, state and local government web resources and services.